SWR83B EDDL-LSZH

Flight info

Callsign SWR83B
Flight time N/A
Altitude 31000
Route DODEN1T DODEN Y852 TUSUK DCT ULNOK L607 SUNEG T721 RILAX
Aircraft A321/M-SDE3FGHIRWY/LB1

Departure

Time N/A
Airport Düsseldorf Airport (EDDL)

Arrival

Time 2026-02-20 11:51
Airport Zürich Airport (LSZH)
Time Latitude Longitude Altitude Speed Heading
2026-02-20 11:27 48.30167 8.54558 31234 ft 370 kts 260°
2026-02-20 11:27 48.29587 8.50894 31230 ft 354 kts 274°
2026-02-20 11:27 48.29593 8.47272 31007 ft 342 kts 287°
2026-02-20 11:28 48.30135 8.43887 30754 ft 329 kts 298°
2026-02-20 11:28 48.31125 8.40856 30502 ft 320 kts 309°
2026-02-20 11:28 48.32480 8.38278 30260 ft 313 kts 320°
2026-02-20 11:28 48.34136 8.36216 29982 ft 307 kts 330°
2026-02-20 11:29 48.36004 8.34729 29687 ft 304 kts 340°
2026-02-20 11:29 48.38028 8.33846 29402 ft 303 kts 350°
2026-02-20 11:29 48.40119 8.33599 29123 ft 304 kts 359°
2026-02-20 11:29 48.42226 8.33840 28857 ft 304 kts
2026-02-20 11:30 48.44277 8.34624 28783 ft 308 kts 17°
2026-02-20 11:30 48.46194 8.36125 28786 ft 316 kts 27°
2026-02-20 11:30 48.47919 8.38218 28791 ft 323 kts 38°
2026-02-20 11:30 48.49364 8.40859 28783 ft 333 kts 49°
2026-02-20 11:31 48.50429 8.44005 28776 ft 344 kts 62°
2026-02-20 11:31 48.51001 8.47559 28776 ft 356 kts 76°
2026-02-20 11:31 48.50995 8.51343 28779 ft 369 kts 90°
2026-02-20 11:31 48.50346 8.55135 28791 ft 381 kts 107°
2026-02-20 11:32 48.49039 8.58652 28789 ft 392 kts 123°
2026-02-20 11:32 48.47122 8.61612 28775 ft 399 kts 140°
2026-02-20 11:32 48.42026 8.64823 28770 ft 404 kts 175°
2026-02-20 11:33 48.39242 8.64784 28778 ft 400 kts 192°
2026-02-20 11:33 48.36485 8.64044 28557 ft 415 kts 194°
2026-02-20 11:33 48.33564 8.63174 27693 ft 436 kts 194°
2026-02-20 11:33 48.30584 8.62251 27062 ft 439 kts 194°
2026-02-20 11:34 48.27599 8.61321 26405 ft 440 kts 194°
2026-02-20 11:34 48.24607 8.60395 25759 ft 441 kts 194°
2026-02-20 11:34 48.21605 8.59478 25111 ft 441 kts 193°
2026-02-20 11:34 48.18602 8.58574 24527 ft 440 kts 193°
2026-02-20 11:35 48.15625 8.57686 24036 ft 436 kts 193°
2026-02-20 11:35 48.12667 8.56813 23496 ft 432 kts 193°
2026-02-20 11:35 48.09743 8.55948 23004 ft 426 kts 192°
2026-02-20 11:35 48.06861 8.55092 22539 ft 419 kts 192°
2026-02-20 11:36 48.04028 8.54250 22113 ft 413 kts 192°
2026-02-20 11:36 48.01240 8.53424 21680 ft 407 kts 192°
2026-02-20 11:36 47.98491 8.52610 21254 ft 401 kts 192°
2026-02-20 11:36 47.95758 8.51971 20841 ft 396 kts 185°
2026-02-20 11:37 47.93023 8.51960 20414 ft 392 kts 175°
2026-02-20 11:37 47.90355 8.52576 19978 ft 387 kts 167°
2026-02-20 11:37 47.87745 8.53410 19553 ft 383 kts 167°
2026-02-20 11:37 47.85146 8.54233 19122 ft 380 kts 168°
2026-02-20 11:38 47.82576 8.55039 18689 ft 377 kts 168°
2026-02-20 11:38 47.80020 8.55836 18208 ft 375 kts 168°
2026-02-20 11:38 47.77484 8.56626 17764 ft 371 kts 168°
2026-02-20 11:38 47.74980 8.57407 17325 ft 367 kts 168°
2026-02-20 11:39 47.72505 8.58177 16884 ft 363 kts 168°
2026-02-20 11:39 47.70105 8.59231 16425 ft 359 kts 157°
2026-02-20 11:39 47.67905 8.60937 15993 ft 356 kts 145°
2026-02-20 11:39 47.65993 8.63206 15564 ft 351 kts 134°
2026-02-20 11:40 47.64399 8.65915 15142 ft 347 kts 127°
2026-02-20 11:40 47.62897 8.68691 14712 ft 345 kts 127°
2026-02-20 11:40 47.61391 8.71452 14280 ft 345 kts 128°
2026-02-20 11:40 47.59882 8.74207 13816 ft 345 kts 128°
2026-02-20 11:41 47.58375 8.76950 13361 ft 342 kts 128°
2026-02-20 11:41 47.56951 8.79740 12927 ft 338 kts 121°
2026-02-20 11:41 47.55903 8.82824 12485 ft 334 kts 109°
2026-02-20 11:41 47.55292 8.86103 12049 ft 330 kts 97°
2026-02-20 11:42 47.55033 8.89451 11436 ft 330 kts 94°
2026-02-20 11:42 47.54792 8.92819 11096 ft 326 kts 95°
2026-02-20 11:42 47.54548 8.96122 10758 ft 320 kts 95°
2026-02-20 11:42 47.54387 8.98270 10669 ft 312 kts 95°
2026-02-20 11:43 47.53613 9.02268 10418 ft 302 kts 122°
2026-02-20 11:43 47.52188 9.04475 10345 ft 299 kts 147°
2026-02-20 11:43 47.50299 9.05645 10209 ft 296 kts 171°
2026-02-20 11:43 47.48241 9.05694 9560 ft 299 kts 189°
2026-02-20 11:44 47.46217 9.05322 8985 ft 289 kts 192°
2026-02-20 11:44 47.44402 9.04273 8202 ft 277 kts 219°
2026-02-20 11:44 47.43143 9.02252 7482 ft 264 kts 245°
2026-02-20 11:44 47.42645 8.99851 7424 ft 229 kts 265°
2026-02-20 11:45 47.42686 8.97596 7420 ft 216 kts 277°
2026-02-20 11:45 47.42851 8.95428 7211 ft 210 kts 277°
2026-02-20 11:45 47.43014 8.93301 6918 ft 208 kts 277°
2026-02-20 11:45 47.43172 8.91188 6607 ft 206 kts 276°
2026-02-20 11:46 47.43327 8.89097 6295 ft 202 kts 276°
2026-02-20 11:46 47.43477 8.87071 5991 ft 197 kts 276°
2026-02-20 11:46 47.43625 8.85078 5702 ft 192 kts 276°
2026-02-20 11:46 47.43766 8.83159 5413 ft 186 kts 276°
2026-02-20 11:47 47.43858 8.81904 5230 ft 183 kts 276°
2026-02-20 11:47 47.44036 8.79492 4866 ft 175 kts 276°
2026-02-20 11:47 47.44166 8.77718 4612 ft 174 kts 276°
2026-02-20 11:47 47.44295 8.75954 4341 ft 172 kts 276°
2026-02-20 11:48 47.44416 8.74285 4103 ft 158 kts 276°
2026-02-20 11:48 47.44531 8.72704 3864 ft 153 kts 276°
2026-02-20 11:48 47.44644 8.71156 3633 ft 152 kts 276°
2026-02-20 11:48 47.44756 8.69608 3396 ft 151 kts 276°
2026-02-20 11:49 47.44868 8.68058 3161 ft 153 kts 276°
2026-02-20 11:49 47.44982 8.66491 2927 ft 152 kts 276°
2026-02-20 11:49 47.45089 8.65005 2703 ft 143 kts 277°
2026-02-20 11:49 47.45192 8.63563 2468 ft 141 kts 276°
2026-02-20 11:50 47.45295 8.62132 2240 ft 141 kts 277°
2026-02-20 11:50 47.45399 8.60694 2015 ft 141 kts 277°
2026-02-20 11:50 47.45502 8.59249 1798 ft 141 kts 277°
2026-02-20 11:50 47.45605 8.57805 1551 ft 141 kts 277°
2026-02-20 11:51 47.45715 8.56375 1415 ft 137 kts 278°
2026-02-20 11:51 47.45784 8.55320 1396 ft 35 kts 274°
2026-02-20 11:51 47.45785 8.55183 1396 ft 11 kts 261°
2026-02-20 11:51 47.45703 8.55163 1404 ft 21 kts 156°
2026-02-20 11:52 47.45569 8.55256 1403 ft 20 kts 154°
2026-02-20 11:52 47.45484 8.55315 1404 ft 20 kts 156°
2026-02-20 11:52 47.45327 8.55435 1400 ft 18 kts 129°
2026-02-20 11:52 47.45275 8.55592 1397 ft 12 kts 101°
2026-02-20 11:53 47.45316 8.55643 1399 ft 8 kts
2026-02-20 11:53 47.45343 8.55647 1399 ft 0 kts